Location: Stendal
(52.5994°N, 11.8400°E)
Time: 08:10:21
(UTC+01:00)

N. Korean satellite - Visible Passes

Search period start: 27 January 2021 00:00
Search period end: 06 February 2021 00:00
Orbit: 452 x 502 km, 97.2° (Epoch: 26 January)

Date Brightness Start Highest point End Pass type
(mag) Time Alt. Az. Time Alt. Az. Time Alt. Az.
27 Jan 9.3 04:51:26 10° NE 04:53:51 18° E 04:56:14 10° SE visible
27 Jan 6.8 06:24:06 10° N 06:27:24 41° WNW 06:30:39 10° SW visible
28 Jan 6.3 05:57:22 10° NNE 06:00:51 85° WNW 06:04:16 10° SSW visible
29 Jan 7.5 05:30:50 10° NNE 05:34:12 46° E 05:37:30 10° S visible
29 Jan 8.0 07:04:53 10° NNW 07:07:13 17° WNW 07:09:32 10° WSW visible
29 Jan 9.7 17:45:29 10° SW 17:48:03 18° W 17:50:36 10° NW visible
30 Jan 8.8 05:04:34 10° NE 05:07:26 24° E 05:10:15 10° SSE visible
30 Jan 7.2 06:37:44 10° N 06:40:48 30° WNW 06:43:49 10° SW visible
31 Jan 9.8 04:38:55 10° ENE 04:40:34 13° E 04:42:13 10° ESE visible
31 Jan 6.4 06:10:52 10° N 06:14:17 58° WNW 06:17:38 10° SSW visible
01 Feb 6.7 05:44:13 10° NNE 05:47:40 68° ESE 05:51:03 10° S visible
01 Feb 9.9 17:59:50 10° WSW 18:01:37 13° W 18:03:25 10° WNW visible
02 Feb 8.2 05:17:47 10° NNE 05:20:56 33° E 05:24:02 10° SSE visible
02 Feb 7.6 06:51:24 10° NNW 06:54:07 22° WNW 06:56:50 10° WSW visible
02 Feb 9.4 17:31:48 10° SSW 17:34:46 24° W 17:37:42 10° NW visible
03 Feb 9.3 04:51:42 10° NE 04:54:06 18° E 04:56:29 10° SE visible
03 Feb 6.8 06:24:22 10° N 06:27:38 41° WNW 06:30:51 10° SW visible
04 Feb 6.3 05:57:36 10° NNE 06:01:02 83° WNW 06:04:27 10° SSW visible
05 Feb 7.5 05:31:00 10° NNE 05:34:21 47° E 05:37:39 10° S visible
05 Feb 8.0 07:05:06 10° NNW 07:07:22 17° WNW 07:09:38 10° WSW visible
05 Feb 9.7 17:45:46 10° SW 17:48:14 17° W 17:50:41 10° NW visible
